AirNav   Air Wisconsin pilot careers
 
 499 users online  

F30 Sulphur Municipal Airport
Sulphur, Oklahoma, USA

GOING TO SULPHUR?


FAA INFORMATION EFFECTIVE 19 JULY 2018

Location

FAA Identifier: F30
Lat/Long: 34-31-28.3180N / 096-59-23.0620W
34-31.471967N / 096-59.384367W
34.5245328 / -96.9897394
(estimated)
Elevation: 1051 ft. / 320 m (estimated)
Variation: 07E (1985)
From city: 2 miles NW of SULPHUR, OK
Time zone: UTC -5 (UTC -6 during Standard Time)
Zip code: 73086

Airport Operations

Airport use: Open to the public
Activation date: 11/1946
Control tower: no
ARTCC: FORT WORTH CENTER
FSS: MC ALESTER FLIGHT SERVICE STATION
NOTAMs facility: MLC (NOTAM-D service available)
Attendance: UNATNDD
Wind indicator: lighted
Segmented circle: yes
Lights: ACTVT MIRL RY 17/35 - CTAF.
Beacon: white-green (lighted land airport)
Operates sunset to sunrise.

Airport Communications

CTAF: 122.9
WX AWOS-3 at ADM (13 nm S): PHONE 580-389-5078
WX AWOS-3 at PVJ (16 nm NW): 118.675 (405-238-4452)

Nearby radio navigation aids

VOR radial/distance  VOR name  Freq  Var
ADMr019/20.8ARDMORE VORTAC116.7006E
ADHr217/23.0ADA VOR/DME117.8006E

 
NDB name  Hdg/Dist  Freq  Var  ID
MULDROW153/32.551206EHMY .... -- -.--

Airport Services

Parking: tiedowns
Airframe service: NONE
Powerplant service: NONE
Bottled oxygen: NONE
Bulk oxygen: NONE

Runway Information

Runway 17/35

Dimensions: 3500 x 60 ft. / 1067 x 18 m
Surface: asphalt, in excellent condition
Weight bearing capacity: 
Single wheel: 12.5
Runway edge lights: medium intensity
RUNWAY 17  RUNWAY 35
Gradient: 1.1%1.1%
Traffic pattern: rightleft
Markings: basic, in good conditionbasic, in good condition
Obstructions: 27 ft. trees, 625 ft. from runway, 15:1 slope to clearnone

Airport Ownership and Management from official FAA records

Ownership: Publicly-owned
Owner: CITY OF SULPHUR
CITY HALL 600 W. BROADWAY
SULPHUR, OK 73086
Phone 580-622-5096
Manager: JACK BEATY
CITY HALL 600 W. BROADWAY
SULPHUR, OK 73086
Phone 580-622-5096
PUBLIC WORKS DIRECTOR.

Airport Operational Statistics

Aircraft based on the field: 7
Single engine airplanes: 7
    
Aircraft operations: avg 32/week *
79% local general aviation
21% transient general aviation
* for 12-month period ending 15 February 2018

Instrument Procedures

There are no published instrument procedures at F30.

Some nearby airports with instrument procedures:

KADM - Ardmore Municipal Airport (13 nm S)
KPVJ - Pauls Valley Municipal Airport (16 nm NW)
KADH - Ada Regional Airport (23 nm NE)
1F0 - Ardmore Downtown Executive Airport (24 nm S)
1F4 - Madill Municipal Airport (25 nm S)
 
Loc | Ops | Rwys | IFR | FBO | Links
Com | Nav | Svcs | Stats | Notes


 
Area around F30 (Sulphur Municipal Airport)
 
Road maps at: MapQuest Bing Google
 
Aerial photo
WARNING: Photo may not be current or correct
Aerial photo of F30 (Sulphur Municipal Airport)
Do you have a better or more recent aerial photo of Sulphur Municipal Airport that you would like to share? If so, please send us your photo.

 
Sectional chart

 
Airport distance calculator
Flying to Sulphur Municipal Airport? Find the distance to fly.

From to F30

Sunrise and sunset
Times for 14-Aug-2018
 Local
(UTC-5)
 Zulu
(UTC)
Morning civil twilight06:2211:22
Sunrise06:4911:49
Sunset20:1601:16
Evening civil twilight20:4301:43

Current date and time
Zulu (UTC)  14-Aug-2018 10:07:40
Local (UTC-5)  14-Aug-2018 05:07:40
 
METAR
KADM 
15nm S 
140955Z AUTO 12004KT 7SM OVC065 23/22 A2992 RMK AO2 LTG DSNT NW T02270221
KPVJ 
16nm NW 
140955Z AUTO 21003KT 10SM VCTS OVC060 21/21 A2992 RMK AO2 LTG DSNT W THRU NE P0001 T02140214
KADH 
23nm NE 
140955Z AUTO 15005KT 5SM BR OVC003 21/21 A2993 RMK AO2 LTG DSNT N
K1F0 
23nm S 
140950Z AUTO 13003KT 10SM BKN070 BKN080 22/20 A2992 RMK AO2 TSNO
TAF
KOUN 
47nm NW 
140524Z 1406/1506 18007KT 4SM BR BKN012 BKN060 TEMPO 1408/1412 2SM BR BKN006 FM141300 20010G16KT P6SM SCT050 BKN200 FM142200 17008KT P6SM BKN100 PROB30 1422/1504 3SM +TSRA BKN030CB
NOTAMs
Click for the latest NOTAMs
NOTAMs are issued by the DoD/FAA and will open in a separate window not controlled by AirNav.

 

 
 

Would you like to see your business listed on this page?

 If your business provides an interesting product or service to pilots, flight crews, aircraft, or users of the Sulphur Municipal Airport, you should consider listing it here.  To start the listing process, click on the button below
 
Add a business
 

Other Pages about Sulphur Municipal Airport

Update a link
 
Copyright © AirNav, LLC. All rights reserved. Privacy Policy  Contact